Regional Weather Roundup
Issued by NWS Jackson, KY

Home | Current Version | Previous Version | Text Only | Print | Product List | Glossary On
Versions: 1 2 3 4 5 6 7 8 9 10 11 12 13 14 15 16 17 18 19 20 21 22 23 24 25 26 27 28 29 30 31 32 33 34 35 36 37 38 39 40 41 42 43 44 45 46 47 48 49 50
000
ASUS43 KJKL 212219
RWRJKL

EAST KENTUCKY HOURLY WEATHER ROUNDUP
NATIONAL WEATHER SERVICE JACKSON KY
600 PM EDT TUE OCT 21 2014

NOTE: "FAIR" INDICATES FEW OR NO CLOUDS BELOW 12,000 FEET WITH
NO SIGNIFICANT WEATHER AND/OR OBSTRUCTIONS TO VISIBILITY.

* THESE REPORTS ARE NOT UNDER NWS QUALITY CONTROL AND MAY NOT
  REPORT WEATHER SUCH AS PRECIPITATION AND FOG.

KYZ079-080-083-085-087-088-110-112-115-119-120-212300
...EASTERN KENTUCKY...

CITY           SKY/WX    TMP DP  RH WIND       PRES   REMARKS
JACKSON        CLOUDY    51  39  63 NW8       30.07R
LONDON         CLOUDY    56  39  53 N9        30.08R
SOMERSET*      CLOUDY    54  39  58 NE7       30.09R
MONTICELLO*    MOCLDY    60  43  53 N8        30.09R
WILLIAMSBURG*  CLOUDY    55  43  62 CALM      30.07R
MIDDLESBORO*   CLOUDY    56  42  58 N16G23    30.06R
HARLAN APT*    CLOUDY    54  37  54 NE3       30.06R
HAZARD APT*    CLOUDY    52  41  66 NW5       30.07
BLACK MTN*       N/A     41  37  87 N10         N/A
PIKEVILLE APT* CLOUDY    50  39  66 NW8       30.06R
BIG SANDY*     CLOUDY    52  42  68 NW3       30.05R
MOREHEAD APT*  CLOUDY    52  41  66 NW7       30.10R
ASHLAND*       CLOUDY    54  43  66 N9        30.04
$$

KYZ035-036-041-042-044-050-067-078-099-212300
...CENTRAL KENTUCKY...

CITY           SKY/WX    TMP DP  RH WIND       PRES   REMARKS
MT STERLING*   CLOUDY    52  41  66 N9        30.10R
FLEMING/MASON* CLOUDY    51  41  68 NW7       30.09R
DANVILLE*      CLOUDY    54  41  62 N9        30.10R
RICHMOND*      CLOUDY    54  39  58 N6        30.08S
LEXINGTON      CLOUDY    56  41  57 N8        30.09R
FRANKFORT      CLOUDY    55  40  56 NW6       30.09R
$$

KYZ091>093-OHZ055-061-077-WVZ005-015-034-035-042-212300
...SOUTHERN OHIO/WEST VIRGINIA...

CITY           SKY/WX    TMP DP  RH WIND       PRES   REMARKS
COVINGTON      CLOUDY    54  40  59 N8        30.09R
COLUMBUS       CLOUDY    48  40  73 N12       30.06R
DAYTON         CLOUDY    50  43  77 N9        30.10R
WILMINGTON     CLOUDY    48  43  82 N10       30.08R
HUNTINGTON     CLOUDY    50  44  80 VRB6      30.05R
CHARLESTON     LGT RAIN  49  44  83 W6        30.02R
PINEVILLE*     CLOUDY    50  46  84 MISG      30.06R
BECKLEY        CLOUDY    44  39  82 NW12G22   30.00R
BLUEFIELD      CLOUDY    47  39  74 NW6       29.99R
$$

VAZ002-007-008-TNZ017-027-036-066-071-212300
...SOUTHWEST VIRGINIA/EAST TENNESSEE...

CITY           SKY/WX    TMP DP  RH WIND       PRES   REMARKS
WISE*          CLOUDY    48  36  61 NW9G16    30.04R
JONESVILLE*    PTCLDY    55  39  54 N7        30.06R
ABINGDON*      CLOUDY    55  38  53 NW9       30.00R
BRISTOL        MOCLDY    57  40  52 N10       30.00R
KNOXVILLE      PTCLDY    66  43  43 NW8       29.99R
OAK RIDGE      PTCLDY    66  42  41 N8        30.02R
CROSSVILLE     MOSUNNY   63  43  48 NW7G17    30.04R
NASHVILLE      MOSUNNY   70  43  37 NW10G18   30.03S
$$

...KEY TO REMARKS...
VSB - VISIBILITY IN MILES
WCI - WIND CHILL INDEX
HX  - HEAT INDEX

$$



USA.gov is the U.S. government's official web portal to all federal, state and local government web resources and services.